Location: Cosy Dell
(34.2789°N, 117.4537°W)
Time: 21:00:56
(UTC+00:00)

Cosmos 1697 Rocket - Pass Details

Date: 14 July 2020
Orbit: 834 x 842 km, 71.0° (Epoch: 13 August)

Event Time Altitude Azimuth Distance (km) Brightness Sun altitude
Rises 10:40:46 0° 333° (NNW) 3,388 6.1 -21.8°
Reaches altitude 10° 10:43:15 10° 329° (NNW) 2,449 5.3 -21.4°
Maximum altitude 10:48:41 53° 254° (WSW) 1,017 2.8 -20.7°
Enters shadow 10:50:28 38° 202° (SSW) 1,249 3.1 -20.4°
